Year,Month,Day,Hour,Minute,Value (Times are PST for temperature in C)
2023,03,29,00,00,8.60
2023,03,29,00,01,8.60
2023,03,29,00,02,8.60
2023,03,29,00,03,8.60
2023,03,29,00,04,8.60
2023,03,29,00,05,8.60
2023,03,29,00,06,8.60
2023,03,29,00,07,8.60
2023,03,29,00,08,8.60
2023,03,29,00,09,8.60
2023,03,29,00,10,8.60
2023,03,29,00,11,8.60
2023,03,29,00,12,8.60
2023,03,29,00,13,8.70
2023,03,29,00,14,8.70
2023,03,29,00,15,8.70
2023,03,29,00,16,8.70
2023,03,29,00,17,8.70
2023,03,29,00,18,8.70
2023,03,29,00,19,8.70
2023,03,29,00,20,8.70
2023,03,29,00,21,8.70
2023,03,29,00,22,8.60
2023,03,29,00,23,8.70
2023,03,29,00,24,8.70
2023,03,29,00,25,8.70
2023,03,29,00,26,8.60
2023,03,29,00,27,8.60
2023,03,29,00,28,8.60
2023,03,29,00,29,8.60
2023,03,29,00,30,8.60
2023,03,29,00,31,8.60
2023,03,29,00,32,8.60
2023,03,29,00,33,8.60
2023,03,29,00,34,8.50
2023,03,29,00,35,8.50
2023,03,29,00,36,8.50
2023,03,29,00,37,8.50
2023,03,29,00,38,8.40
2023,03,29,00,39,8.40
2023,03,29,00,40,8.40
2023,03,29,00,41,8.40
2023,03,29,00,42,8.40
2023,03,29,00,43,8.30
2023,03,29,00,44,8.30
2023,03,29,00,45,8.30
2023,03,29,00,46,8.30
2023,03,29,00,47,8.20
2023,03,29,00,48,8.20
2023,03,29,00,49,8.20
2023,03,29,00,50,8.10
2023,03,29,00,51,8.10
2023,03,29,00,52,8.00
2023,03,29,00,53,8.00
2023,03,29,00,54,8.00
2023,03,29,00,55,7.90
2023,03,29,00,56,7.90
2023,03,29,00,57,7.80
2023,03,29,00,58,7.80
2023,03,29,00,59,7.80
2023,03,29,01,00,7.80
2023,03,29,01,01,7.70
2023,03,29,01,02,7.70
2023,03,29,01,03,7.60
2023,03,29,01,04,7.60
2023,03,29,01,05,7.60
2023,03,29,01,06,7.50
2023,03,29,01,07,7.50
2023,03,29,01,08,7.50
2023,03,29,01,09,7.50
2023,03,29,01,10,7.40
2023,03,29,01,11,7.40
2023,03,29,01,12,7.40
2023,03,29,01,13,7.40
2023,03,29,01,14,7.30
2023,03,29,01,15,7.30
2023,03,29,01,16,7.30
2023,03,29,01,17,7.30
2023,03,29,01,18,7.30
2023,03,29,01,19,7.30
2023,03,29,01,20,7.30
2023,03,29,01,21,7.30
2023,03,29,01,22,7.30
2023,03,29,01,23,7.30
2023,03,29,01,24,7.30
2023,03,29,01,25,7.30
2023,03,29,01,26,7.20
2023,03,29,01,27,7.30
2023,03,29,01,28,7.30
2023,03,29,01,29,7.30
2023,03,29,01,30,7.30
2023,03,29,01,31,7.30
2023,03,29,01,32,7.30
2023,03,29,01,33,7.30
2023,03,29,01,34,7.30
2023,03,29,01,35,7.40
2023,03,29,01,36,7.40
2023,03,29,01,37,7.40
2023,03,29,01,38,7.50
2023,03,29,01,39,7.50
2023,03,29,01,40,7.60
2023,03,29,01,41,7.60
2023,03,29,01,42,7.60
2023,03,29,01,43,7.70
2023,03,29,01,44,7.70
2023,03,29,01,45,7.70
2023,03,29,01,46,7.80
2023,03,29,01,47,7.80
2023,03,29,01,48,7.80
2023,03,29,01,49,7.80
2023,03,29,01,50,7.80
2023,03,29,01,51,7.90
2023,03,29,01,52,7.90
2023,03,29,01,53,7.90
2023,03,29,01,54,8.00
2023,03,29,01,55,8.00
2023,03,29,01,56,8.10
2023,03,29,01,57,8.10
2023,03,29,01,58,8.20
2023,03,29,01,59,8.20
2023,03,29,02,00,8.20
2023,03,29,02,01,8.30
2023,03,29,02,02,8.30
2023,03,29,02,03,8.40
2023,03,29,02,04,8.50
2023,03,29,02,05,8.50
2023,03,29,02,06,8.60
2023,03,29,02,07,8.60
2023,03,29,02,08,8.70
2023,03,29,02,09,8.80
2023,03,29,02,10,8.90
2023,03,29,02,11,9.00
2023,03,29,02,12,9.00
2023,03,29,02,13,9.10
2023,03,29,02,14,9.20
2023,03,29,02,15,9.30
2023,03,29,02,16,9.30
2023,03,29,02,17,9.40
2023,03,29,02,18,9.50
2023,03,29,02,19,9.50
2023,03,29,02,20,9.60
2023,03,29,02,21,9.70
2023,03,29,02,22,9.70
2023,03,29,02,23,9.70
2023,03,29,02,24,9.80
2023,03,29,02,25,9.80
2023,03,29,02,26,9.90
2023,03,29,02,27,9.90
2023,03,29,02,28,10.00
2023,03,29,02,29,10.00
2023,03,29,02,30,10.10
2023,03,29,02,31,10.10
2023,03,29,02,32,10.10
2023,03,29,02,33,10.20
2023,03,29,02,34,10.20
2023,03,29,02,35,10.20
2023,03,29,02,36,10.20
2023,03,29,02,37,10.20
2023,03,29,02,38,10.20
2023,03,29,02,39,10.30
2023,03,29,02,40,10.30
2023,03,29,02,41,10.30
2023,03,29,02,42,10.30
2023,03,29,02,43,10.30
2023,03,29,02,44,10.30
2023,03,29,02,45,10.30
2023,03,29,02,46,10.30
2023,03,29,02,47,10.30
2023,03,29,02,48,10.30
2023,03,29,02,49,10.40
2023,03,29,02,50,10.30
2023,03,29,02,51,10.30
2023,03,29,02,52,10.40
2023,03,29,02,53,10.40
2023,03,29,02,54,10.40
2023,03,29,02,55,10.40
2023,03,29,02,56,10.40
2023,03,29,02,57,10.40
2023,03,29,02,58,10.40
2023,03,29,02,59,10.40
2023,03,29,03,00,10.40
2023,03,29,03,01,10.40
2023,03,29,03,02,10.40
2023,03,29,03,03,10.50
2023,03,29,03,04,10.40
2023,03,29,03,05,10.50
2023,03,29,03,06,10.50
2023,03,29,03,07,10.50
2023,03,29,03,08,10.50
2023,03,29,03,09,10.50
2023,03,29,03,10,10.50
2023,03,29,03,11,10.50
2023,03,29,03,12,10.50
2023,03,29,03,13,10.50
2023,03,29,03,14,10.50
2023,03,29,03,15,10.50
2023,03,29,03,16,10.50
2023,03,29,03,17,10.50
2023,03,29,03,18,10.50
2023,03,29,03,19,10.50
2023,03,29,03,20,10.50
2023,03,29,03,21,10.50
2023,03,29,03,22,10.50
2023,03,29,03,23,10.60
2023,03,29,03,24,10.50
2023,03,29,03,25,10.50
2023,03,29,03,26,10.50
2023,03,29,03,27,10.50
2023,03,29,03,28,10.60
2023,03,29,03,29,10.60
2023,03,29,03,30,10.60
2023,03,29,03,31,10.60
2023,03,29,03,32,10.60
2023,03,29,03,33,10.60
2023,03,29,03,34,10.60
2023,03,29,03,35,10.60
2023,03,29,03,36,10.60
2023,03,29,03,37,10.60
2023,03,29,03,38,10.60
2023,03,29,03,39,10.60
2023,03,29,03,40,10.60
2023,03,29,03,41,10.60
2023,03,29,03,42,10.60
2023,03,29,03,43,10.60
2023,03,29,03,44,10.60
2023,03,29,03,45,10.60
2023,03,29,03,46,10.60
2023,03,29,03,47,10.60
2023,03,29,03,48,10.60
2023,03,29,03,49,10.60
2023,03,29,03,50,10.60
2023,03,29,03,51,10.60
2023,03,29,03,52,10.60
2023,03,29,03,53,10.60
2023,03,29,03,54,10.60
2023,03,29,03,55,10.50
2023,03,29,03,56,10.60
2023,03,29,03,57,10.60
2023,03,29,03,58,10.60
2023,03,29,03,59,10.50
2023,03,29,04,00,10.60
2023,03,29,04,01,10.50
2023,03,29,04,02,10.50
2023,03,29,04,03,10.60
2023,03,29,04,04,10.60
2023,03,29,04,05,10.60
2023,03,29,04,06,10.60
2023,03,29,04,07,10.60
2023,03,29,04,08,10.60
2023,03,29,04,09,10.60
2023,03,29,04,10,10.60
2023,03,29,04,11,10.60
2023,03,29,04,12,10.50
2023,03,29,04,13,10.50
2023,03,29,04,14,10.50
2023,03,29,04,15,10.60
2023,03,29,04,16,10.50
2023,03,29,04,17,10.50
2023,03,29,04,18,10.50
2023,03,29,04,19,10.50
2023,03,29,04,20,10.50
2023,03,29,04,21,10.50
2023,03,29,04,22,10.50
2023,03,29,04,23,10.50
2023,03,29,04,24,10.40
2023,03,29,04,25,10.40
2023,03,29,04,26,10.40
2023,03,29,04,27,10.40
2023,03,29,04,28,10.40
2023,03,29,04,29,10.40
2023,03,29,04,30,10.40
2023,03,29,04,31,10.40
2023,03,29,04,32,10.40
2023,03,29,04,33,10.40
2023,03,29,04,34,10.40
2023,03,29,04,35,10.40
2023,03,29,04,36,10.40
2023,03,29,04,37,10.40
2023,03,29,04,38,10.40
2023,03,29,04,39,10.40
2023,03,29,04,40,10.40
2023,03,29,04,41,10.40
2023,03,29,04,42,10.40
2023,03,29,04,43,10.30
2023,03,29,04,44,10.40
2023,03,29,04,45,10.30
2023,03,29,04,46,10.30
2023,03,29,04,47,10.30
2023,03,29,04,48,10.30
2023,03,29,04,49,10.30
2023,03,29,04,50,10.30
2023,03,29,04,51,10.30
2023,03,29,04,52,10.30
2023,03,29,04,53,10.30
2023,03,29,04,54,10.30
2023,03,29,04,55,10.30
2023,03,29,04,56,10.30
2023,03,29,04,57,10.20
2023,03,29,04,58,10.20
2023,03,29,04,59,10.20
2023,03,29,05,00,10.20
2023,03,29,05,01,10.20
2023,03,29,05,02,10.20
2023,03,29,05,03,10.20
2023,03,29,05,04,10.20
2023,03,29,05,05,10.20
2023,03,29,05,06,10.20
2023,03,29,05,07,10.20
2023,03,29,05,08,10.20
2023,03,29,05,09,10.20
2023,03,29,05,10,10.20
2023,03,29,05,11,10.20
2023,03,29,05,12,10.20
2023,03,29,05,13,10.20
2023,03,29,05,14,10.20
2023,03,29,05,15,10.20
2023,03,29,05,16,10.20
2023,03,29,05,17,10.20
2023,03,29,05,18,10.20
2023,03,29,05,19,10.20
2023,03,29,05,20,10.20
2023,03,29,05,21,10.20
2023,03,29,05,22,10.20
2023,03,29,05,23,10.20
2023,03,29,05,24,10.20
2023,03,29,05,25,10.20
2023,03,29,05,26,10.20
2023,03,29,05,27,10.20
2023,03,29,05,28,10.20
2023,03,29,05,29,10.20
2023,03,29,05,30,10.20
2023,03,29,05,31,10.20
2023,03,29,05,32,10.10
2023,03,29,05,33,10.10
2023,03,29,05,34,10.10
2023,03,29,05,35,10.10
2023,03,29,05,36,10.00
2023,03,29,05,37,10.00
2023,03,29,05,38,9.90
2023,03,29,05,39,9.90
2023,03,29,05,40,9.90
2023,03,29,05,41,9.80
2023,03,29,05,42,9.70
2023,03,29,05,43,9.70
2023,03,29,05,44,9.70
2023,03,29,05,45,9.60
2023,03,29,05,46,9.60
2023,03,29,05,47,9.50
2023,03,29,05,48,9.50
2023,03,29,05,49,9.40
2023,03,29,05,50,9.40
2023,03,29,05,51,9.30
2023,03,29,05,52,9.30
2023,03,29,05,53,9.20
2023,03,29,05,54,9.20
2023,03,29,05,55,9.10
2023,03,29,05,56,9.10
2023,03,29,05,57,9.00
2023,03,29,05,58,9.00
2023,03,29,05,59,8.90
2023,03,29,06,00,8.90
2023,03,29,06,01,8.80
2023,03,29,06,02,8.80
2023,03,29,06,03,8.70
2023,03,29,06,04,8.70
2023,03,29,06,05,8.70
2023,03,29,06,06,8.70
2023,03,29,06,07,8.70
2023,03,29,06,08,8.70
2023,03,29,06,09,8.70
2023,03,29,06,10,8.70
2023,03,29,06,11,8.80
2023,03,29,06,12,8.80
2023,03,29,06,13,8.80
2023,03,29,06,14,8.80
2023,03,29,06,15,8.80
2023,03,29,06,16,8.80
2023,03,29,06,17,8.80
2023,03,29,06,18,8.70
2023,03,29,06,19,8.70
2023,03,29,06,20,8.70
2023,03,29,06,21,8.70
2023,03,29,06,22,8.60
2023,03,29,06,23,8.60
2023,03,29,06,24,8.50
2023,03,29,06,25,8.50
2023,03,29,06,26,8.40
2023,03,29,06,27,8.40
2023,03,29,06,28,8.30
2023,03,29,06,29,8.30
2023,03,29,06,30,8.20
2023,03,29,06,31,8.10
2023,03,29,06,32,8.10
2023,03,29,06,33,8.10
2023,03,29,06,34,8.00
2023,03,29,06,35,7.90
2023,03,29,06,36,7.80
2023,03,29,06,37,7.80
2023,03,29,06,38,7.80
2023,03,29,06,39,7.70
2023,03,29,06,40,7.70
2023,03,29,06,41,7.60
2023,03,29,06,42,7.60
2023,03,29,06,43,7.50
2023,03,29,06,44,7.50
2023,03,29,06,45,7.50
2023,03,29,06,46,7.40
2023,03,29,06,47,7.40
2023,03,29,06,48,7.40
2023,03,29,06,49,7.30
2023,03,29,06,50,7.30
2023,03,29,06,51,7.30
2023,03,29,06,52,7.20
2023,03,29,06,53,7.20
2023,03,29,06,54,7.20
2023,03,29,06,55,7.10
2023,03,29,06,56,7.10
2023,03,29,06,57,7.10
2023,03,29,06,58,7.00
2023,03,29,06,59,7.00
2023,03,29,07,00,6.90
2023,03,29,07,01,6.90
2023,03,29,07,02,6.90
2023,03,29,07,03,6.80
2023,03,29,07,04,6.80
2023,03,29,07,05,6.80
2023,03,29,07,06,6.70
2023,03,29,07,07,6.70
2023,03,29,07,08,6.60
2023,03,29,07,09,6.60
2023,03,29,07,10,6.60
2023,03,29,07,11,6.50
2023,03,29,07,12,6.50
2023,03,29,07,13,6.50
2023,03,29,07,14,6.50
2023,03,29,07,15,6.50
2023,03,29,07,16,6.50
2023,03,29,07,17,6.40
2023,03,29,07,18,6.40
2023,03,29,07,19,6.40
2023,03,29,07,20,6.40
2023,03,29,07,21,6.40
2023,03,29,07,22,6.40
2023,03,29,07,23,6.40
2023,03,29,07,24,6.30
2023,03,29,07,25,6.30
2023,03,29,07,26,6.30
2023,03,29,07,27,6.30
2023,03,29,07,28,6.30
2023,03,29,07,29,6.30
2023,03,29,07,30,6.30
2023,03,29,07,31,6.40
2023,03,29,07,32,6.40
2023,03,29,07,33,6.30
2023,03,29,07,34,6.30
2023,03,29,07,35,6.40
2023,03,29,07,36,6.40
2023,03,29,07,37,6.40
2023,03,29,07,38,6.40
2023,03,29,07,39,6.40
2023,03,29,07,40,6.50
2023,03,29,07,41,6.60
2023,03,29,07,42,6.60
2023,03,29,07,43,6.60
2023,03,29,07,44,6.70
2023,03,29,07,45,6.80
2023,03,29,07,46,6.80
2023,03,29,07,47,6.90
2023,03,29,07,48,7.00
2023,03,29,07,49,7.10
2023,03,29,07,50,7.20
2023,03,29,07,51,7.20
2023,03,29,07,52,7.30
2023,03,29,07,53,7.40
2023,03,29,07,54,7.50
2023,03,29,07,55,7.60
2023,03,29,07,56,7.70
2023,03,29,07,57,7.70
2023,03,29,07,58,7.80
2023,03,29,07,59,7.90
2023,03,29,08,00,7.90
2023,03,29,08,01,8.00
2023,03,29,08,02,8.00
2023,03,29,08,03,8.10
2023,03,29,08,04,8.10
2023,03,29,08,05,8.20
2023,03,29,08,06,8.30
2023,03,29,08,07,8.30
2023,03,29,08,08,8.30
2023,03,29,08,09,8.40
2023,03,29,08,10,8.50
2023,03,29,08,11,8.60
2023,03,29,08,12,8.70
2023,03,29,08,13,8.70
2023,03,29,08,14,8.80
2023,03,29,08,15,8.90
2023,03,29,08,16,9.00
2023,03,29,08,17,9.10
2023,03,29,08,18,9.20
2023,03,29,08,19,9.20
2023,03,29,08,20,9.30
2023,03,29,08,21,9.40
2023,03,29,08,22,9.40
2023,03,29,08,23,9.50
2023,03,29,08,24,9.70
2023,03,29,08,25,9.80
2023,03,29,08,26,9.80
2023,03,29,08,27,9.90
2023,03,29,08,28,10.00
2023,03,29,08,29,10.00
2023,03,29,08,30,10.10
2023,03,29,08,31,10.10
2023,03,29,08,32,10.20
2023,03,29,08,33,10.30
2023,03,29,08,34,10.30
2023,03,29,08,35,10.40
2023,03,29,08,36,10.50
2023,03,29,08,37,10.60
2023,03,29,08,38,10.60
2023,03,29,08,39,10.70
2023,03,29,08,40,10.70
2023,03,29,08,41,10.80
2023,03,29,08,42,10.90
2023,03,29,08,43,10.90
2023,03,29,08,44,11.00
2023,03,29,08,45,11.10
2023,03,29,08,46,11.20
2023,03,29,08,47,11.20
2023,03,29,08,48,11.30
2023,03,29,08,49,11.40
2023,03,29,08,50,11.40
2023,03,29,08,51,11.50
2023,03,29,08,52,11.50
2023,03,29,08,53,11.60
2023,03,29,08,54,11.60
2023,03,29,08,55,11.70
2023,03,29,08,56,11.80
2023,03,29,08,57,11.80
2023,03,29,08,58,11.80
2023,03,29,08,59,11.90
2023,03,29,09,00,11.90
2023,03,29,09,01,12.00
2023,03,29,09,02,12.00
2023,03,29,09,03,12.10
2023,03,29,09,04,12.10
2023,03,29,09,05,12.10
2023,03,29,09,06,12.20
2023,03,29,09,07,12.20
2023,03,29,09,08,12.20
2023,03,29,09,09,12.30
2023,03,29,09,10,12.30
2023,03,29,09,11,12.30
2023,03,29,09,12,12.40
2023,03,29,09,13,12.40
2023,03,29,09,14,12.40
2023,03,29,09,15,12.50
2023,03,29,09,16,12.50
2023,03,29,09,17,12.60
2023,03,29,09,18,12.60
2023,03,29,09,19,12.60
2023,03,29,09,20,12.70
2023,03,29,09,21,12.70
2023,03,29,09,22,12.80
2023,03,29,09,23,12.90
2023,03,29,09,24,12.90
2023,03,29,09,25,12.90
2023,03,29,09,26,12.90
2023,03,29,09,27,12.90
2023,03,29,09,28,12.90
2023,03,29,09,29,12.90
2023,03,29,09,30,13.00
2023,03,29,09,31,13.00
2023,03,29,09,32,13.10
2023,03,29,09,33,13.10
2023,03,29,09,34,13.20
2023,03,29,09,35,13.30
2023,03,29,09,36,13.30
2023,03,29,09,37,13.40
2023,03,29,09,38,13.50
2023,03,29,09,39,13.50
2023,03,29,09,40,13.60
2023,03,29,09,41,13.50
2023,03,29,09,42,13.50
2023,03,29,09,43,13.40
2023,03,29,09,44,13.30
2023,03,29,09,45,13.20
2023,03,29,09,46,13.10
2023,03,29,09,47,12.90
2023,03,29,09,48,12.90
2023,03,29,09,49,12.80
2023,03,29,09,50,12.80
2023,03,29,09,51,12.80
2023,03,29,09,52,12.80
2023,03,29,09,53,12.80
2023,03,29,09,54,12.80
2023,03,29,09,55,12.80
2023,03,29,09,56,12.80
2023,03,29,09,57,12.70
2023,03,29,09,58,12.70
2023,03,29,09,59,12.70
2023,03,29,10,00,12.70
2023,03,29,10,01,12.70
2023,03,29,10,02,12.70
2023,03,29,10,03,12.70
2023,03,29,10,04,12.70
2023,03,29,10,05,12.70
2023,03,29,10,06,12.60
2023,03,29,10,07,12.60
2023,03,29,10,08,12.60
2023,03,29,10,09,12.60
2023,03,29,10,10,12.60
2023,03,29,10,11,12.60
2023,03,29,10,12,12.50
2023,03,29,10,13,12.50
2023,03,29,10,14,12.50
2023,03,29,10,15,12.50
2023,03,29,10,16,12.60
2023,03,29,10,17,12.60
2023,03,29,10,18,12.60
2023,03,29,10,19,12.70
2023,03,29,10,20,12.70
2023,03,29,10,21,12.70
2023,03,29,10,22,12.80
2023,03,29,10,23,12.80
2023,03,29,10,24,12.90
2023,03,29,10,25,13.00
2023,03,29,10,26,13.00
2023,03,29,10,27,13.10
2023,03,29,10,28,13.10
2023,03,29,10,29,13.10
2023,03,29,10,30,13.10
2023,03,29,10,31,13.10
2023,03,29,10,32,13.00
2023,03,29,10,33,13.00
2023,03,29,10,34,12.90
2023,03,29,10,35,12.90
2023,03,29,10,36,12.90
2023,03,29,10,37,12.90
2023,03,29,10,38,12.90
2023,03,29,10,39,12.90
2023,03,29,10,40,12.80
2023,03,29,10,41,12.90
2023,03,29,10,42,12.90
2023,03,29,10,43,13.00
2023,03,29,10,44,13.10
2023,03,29,10,45,13.30
2023,03,29,10,46,13.40
2023,03,29,10,47,13.50
2023,03,29,10,48,13.60
2023,03,29,10,49,13.70
2023,03,29,10,50,13.80
2023,03,29,10,51,14.00
2023,03,29,10,52,14.00
2023,03,29,10,53,14.10
2023,03,29,10,54,14.20
2023,03,29,10,55,14.30
2023,03,29,10,56,14.30
2023,03,29,10,57,14.40
2023,03,29,10,58,14.40
2023,03,29,10,59,14.50
2023,03,29,11,00,14.50
2023,03,29,11,01,14.60
2023,03,29,11,02,14.60
2023,03,29,11,03,14.60
2023,03,29,11,04,14.60
2023,03,29,11,05,14.60
2023,03,29,11,06,14.60
2023,03,29,11,07,14.60
2023,03,29,11,08,14.60
2023,03,29,11,09,14.60
2023,03,29,11,10,14.70
2023,03,29,11,11,14.70
2023,03,29,11,12,14.70
2023,03,29,11,13,14.70
2023,03,29,11,14,14.70
2023,03,29,11,15,14.60
2023,03,29,11,16,14.60
2023,03,29,11,17,14.60
2023,03,29,11,18,14.60
2023,03,29,11,19,14.70
2023,03,29,11,20,14.60
2023,03,29,11,21,14.40
2023,03,29,11,22,14.30
2023,03,29,11,23,14.20
2023,03,29,11,24,14.10
2023,03,29,11,25,14.00
2023,03,29,11,26,14.00
2023,03,29,11,27,14.10
2023,03,29,11,28,14.20
2023,03,29,11,29,14.20
2023,03,29,11,30,14.30
2023,03,29,11,31,14.40
2023,03,29,11,32,14.50
2023,03,29,11,33,14.50
2023,03,29,11,34,14.40
2023,03,29,11,35,14.30
2023,03,29,11,36,14.20
2023,03,29,11,37,14.10
2023,03,29,11,38,14.00
2023,03,29,11,39,14.00
2023,03,29,11,40,14.00
2023,03,29,11,41,14.10
2023,03,29,11,42,14.20
2023,03,29,11,43,14.20
2023,03,29,11,44,14.30
2023,03,29,11,45,14.30
2023,03,29,11,46,14.40
2023,03,29,11,47,14.50
2023,03,29,11,48,14.50
2023,03,29,11,49,14.60
2023,03,29,11,50,14.60
2023,03,29,11,51,14.70
2023,03,29,11,52,14.70
2023,03,29,11,53,14.80
2023,03,29,11,54,14.80
2023,03,29,11,55,14.90
2023,03,29,11,56,14.90
2023,03,29,11,57,14.90
2023,03,29,11,58,15.00
2023,03,29,11,59,15.00
2023,03,29,12,00,15.10
2023,03,29,12,01,15.20
2023,03,29,12,02,15.30
2023,03,29,12,03,15.30
2023,03,29,12,04,15.30
2023,03,29,12,05,15.40
2023,03,29,12,06,15.40
2023,03,29,12,07,15.40
2023,03,29,12,08,15.40
2023,03,29,12,09,15.40
2023,03,29,12,10,15.40
2023,03,29,12,11,15.40
2023,03,29,12,12,15.40
2023,03,29,12,13,15.40
2023,03,29,12,14,15.40
2023,03,29,12,15,15.40
2023,03,29,12,16,15.40
2023,03,29,12,17,15.40
2023,03,29,12,18,15.40
2023,03,29,12,19,15.40
2023,03,29,12,20,15.40
2023,03,29,12,21,15.40
2023,03,29,12,22,15.40
2023,03,29,12,23,15.40
2023,03,29,12,24,15.50
2023,03,29,12,25,15.50
2023,03,29,12,26,15.50
2023,03,29,12,27,15.60
2023,03,29,12,28,15.50
2023,03,29,12,29,15.50
2023,03,29,12,30,15.50
2023,03,29,12,31,15.50
2023,03,29,12,32,15.50
2023,03,29,12,33,15.50
2023,03,29,12,34,15.60
2023,03,29,12,35,15.60
2023,03,29,12,36,15.70
2023,03,29,12,37,15.70
2023,03,29,12,38,15.70
2023,03,29,12,39,15.80
2023,03,29,12,40,15.80
2023,03,29,12,41,15.80
2023,03,29,12,42,15.90
2023,03,29,12,43,15.90
2023,03,29,12,44,16.00
2023,03,29,12,45,16.00
2023,03,29,12,46,16.10
2023,03,29,12,47,16.10
2023,03,29,12,48,16.10
2023,03,29,12,49,16.20
2023,03,29,12,50,16.20
2023,03,29,12,51,16.20
2023,03,29,12,52,16.10
2023,03,29,12,53,16.10
2023,03,29,12,54,16.10
2023,03,29,12,55,16.10
2023,03,29,12,56,16.10
2023,03,29,12,57,15.90
2023,03,29,12,58,15.80
2023,03,29,12,59,15.70
2023,03,29,13,00,15.50
2023,03,29,13,01,15.30
2023,03,29,13,02,15.20
2023,03,29,13,03,15.10
2023,03,29,13,04,15.00
2023,03,29,13,05,14.90
2023,03,29,13,06,14.90
2023,03,29,13,07,14.90
2023,03,29,13,08,14.90
2023,03,29,13,09,14.90
2023,03,29,13,10,14.80
2023,03,29,13,11,14.80
2023,03,29,13,12,14.80
2023,03,29,13,13,14.70
2023,03,29,13,14,14.70
2023,03,29,13,15,14.70
2023,03,29,13,16,14.70
2023,03,29,13,17,14.70
2023,03,29,13,18,14.70
2023,03,29,13,19,14.70
2023,03,29,13,20,14.70
2023,03,29,13,21,14.70
2023,03,29,13,22,14.70
2023,03,29,13,23,14.70
2023,03,29,13,24,14.80
2023,03,29,13,25,14.80
2023,03,29,13,26,14.90
2023,03,29,13,27,14.90
2023,03,29,13,28,15.00
2023,03,29,13,29,15.10
2023,03,29,13,30,15.20
2023,03,29,13,31,15.30
2023,03,29,13,32,15.40
2023,03,29,13,33,15.50
2023,03,29,13,34,15.50
2023,03,29,13,35,15.60
2023,03,29,13,36,15.60
2023,03,29,13,37,15.60
2023,03,29,13,38,15.60
2023,03,29,13,39,15.60
2023,03,29,13,40,15.60
2023,03,29,13,41,15.60
2023,03,29,13,42,15.60
2023,03,29,13,43,15.60
2023,03,29,13,44,15.70
2023,03,29,13,45,15.80
2023,03,29,13,46,15.90
2023,03,29,13,47,15.90
2023,03,29,13,48,16.00
2023,03,29,13,49,16.10
2023,03,29,13,50,16.10
2023,03,29,13,51,16.20
2023,03,29,13,52,16.20
2023,03,29,13,53,16.30
2023,03,29,13,54,16.30
2023,03,29,13,55,16.20
2023,03,29,13,56,16.00
2023,03,29,13,57,15.90
2023,03,29,13,58,15.70
2023,03,29,13,59,15.60
2023,03,29,14,00,15.50
2023,03,29,14,01,15.40
2023,03,29,14,02,15.30
2023,03,29,14,03,15.40
2023,03,29,14,04,15.40
2023,03,29,14,05,15.40
2023,03,29,14,06,15.40
2023,03,29,14,07,15.40
2023,03,29,14,08,15.40
2023,03,29,14,09,15.50
2023,03,29,14,10,15.40
2023,03,29,14,11,15.40
2023,03,29,14,12,15.40
2023,03,29,14,13,15.30
2023,03,29,14,14,15.30
2023,03,29,14,15,15.30
2023,03,29,14,16,15.30
2023,03,29,14,17,15.30
2023,03,29,14,18,15.30
2023,03,29,14,19,15.30
2023,03,29,14,20,15.30
2023,03,29,14,21,15.30
2023,03,29,14,22,15.30
2023,03,29,14,23,15.30
2023,03,29,14,24,15.40
2023,03,29,14,25,15.40
2023,03,29,14,26,15.40
2023,03,29,14,27,15.40
2023,03,29,14,28,15.30
2023,03,29,14,29,15.20
2023,03,29,14,30,15.20
2023,03,29,14,31,15.20
2023,03,29,14,32,15.10
2023,03,29,14,33,15.10
2023,03,29,14,34,15.00
2023,03,29,14,35,15.00
2023,03,29,14,36,14.90
2023,03,29,14,37,14.80
2023,03,29,14,38,14.80
2023,03,29,14,39,14.80
2023,03,29,14,40,14.80
2023,03,29,14,41,14.80
2023,03,29,14,42,14.80
2023,03,29,14,43,14.80
2023,03,29,14,44,14.80
2023,03,29,14,45,14.80
2023,03,29,14,46,14.80
2023,03,29,14,47,14.70
2023,03,29,14,48,14.60
2023,03,29,14,49,14.60
2023,03,29,14,50,14.50
2023,03,29,14,51,14.50
2023,03,29,14,52,14.50
2023,03,29,14,53,14.50
2023,03,29,14,54,14.40
2023,03,29,14,55,14.40
2023,03,29,14,56,14.40
2023,03,29,14,57,14.40
2023,03,29,14,58,14.40
2023,03,29,14,59,14.40
2023,03,29,15,00,14.40
2023,03,29,15,01,14.40
2023,03,29,15,02,14.40
2023,03,29,15,03,14.50
2023,03,29,15,04,14.50
2023,03,29,15,05,14.50
2023,03,29,15,06,14.50
2023,03,29,15,07,14.60
2023,03,29,15,08,14.60
2023,03,29,15,09,14.60
2023,03,29,15,10,14.60
2023,03,29,15,11,14.60
2023,03,29,15,12,14.60
2023,03,29,15,13,14.50
2023,03,29,15,14,14.60
2023,03,29,15,15,14.60
2023,03,29,15,16,14.60
2023,03,29,15,17,14.60
2023,03,29,15,18,14.60
2023,03,29,15,19,14.50
2023,03,29,15,20,14.50
2023,03,29,15,21,14.40
2023,03,29,15,22,14.40
2023,03,29,15,23,14.50
2023,03,29,15,24,14.50
2023,03,29,15,25,14.50
2023,03,29,15,26,14.50
2023,03,29,15,27,14.50
2023,03,29,15,28,14.50
2023,03,29,15,29,14.60
2023,03,29,15,30,14.60
2023,03,29,15,31,14.60
2023,03,29,15,32,14.60
2023,03,29,15,33,14.70
2023,03,29,15,34,14.70
2023,03,29,15,35,14.70
2023,03,29,15,36,14.70
2023,03,29,15,37,14.70
2023,03,29,15,38,14.70
2023,03,29,15,39,14.60
2023,03,29,15,40,14.60
2023,03,29,15,41,14.60
2023,03,29,15,42,14.60
2023,03,29,15,43,14.60
2023,03,29,15,44,14.60
2023,03,29,15,45,14.60
2023,03,29,15,46,14.60
2023,03,29,15,47,14.60
2023,03,29,15,48,14.60
2023,03,29,15,49,14.60
2023,03,29,15,50,14.50
2023,03,29,15,51,14.50
2023,03,29,15,52,14.50
2023,03,29,15,53,14.50
2023,03,29,15,54,14.50
2023,03,29,15,55,14.60
2023,03,29,15,56,14.60
2023,03,29,15,57,14.70
2023,03,29,15,58,14.70
2023,03,29,15,59,14.80
2023,03,29,16,00,14.80
2023,03,29,16,01,14.90
2023,03,29,16,02,15.00
2023,03,29,16,03,15.10
2023,03,29,16,04,15.30
2023,03,29,16,05,15.40
2023,03,29,16,06,15.40
2023,03,29,16,07,15.50
2023,03,29,16,08,15.40
2023,03,29,16,09,15.40
2023,03,29,16,10,15.40
2023,03,29,16,11,15.40
2023,03,29,16,12,15.30
2023,03,29,16,13,15.30
2023,03,29,16,14,15.30
2023,03,29,16,15,15.30
2023,03,29,16,16,15.30
2023,03,29,16,17,15.30
2023,03,29,16,18,15.30
2023,03,29,16,19,15.30
2023,03,29,16,20,15.30
2023,03,29,16,21,15.30
2023,03,29,16,22,15.30
2023,03,29,16,23,15.30
2023,03,29,16,24,15.30
2023,03,29,16,25,15.30
2023,03,29,16,26,15.20
2023,03,29,16,27,15.20
2023,03,29,16,28,15.20
2023,03,29,16,29,15.20
2023,03,29,16,30,15.20
2023,03,29,16,31,15.10
2023,03,29,16,32,15.00
2023,03,29,16,33,15.00
2023,03,29,16,34,14.90
2023,03,29,16,35,14.80
2023,03,29,16,36,14.80
2023,03,29,16,37,14.80
2023,03,29,16,38,14.90
2023,03,29,16,39,14.90
2023,03,29,16,40,15.00
2023,03,29,16,41,15.00
2023,03,29,16,42,15.10
2023,03,29,16,43,15.20
2023,03,29,16,44,15.20
2023,03,29,16,45,15.20
2023,03,29,16,46,15.20
2023,03,29,16,47,15.20
2023,03,29,16,48,15.20
2023,03,29,16,49,15.10
2023,03,29,16,50,15.10
2023,03,29,16,51,15.00
2023,03,29,16,52,15.00
2023,03,29,16,53,15.00
2023,03,29,16,54,15.00
2023,03,29,16,55,15.00
2023,03,29,16,56,14.90
2023,03,29,16,57,14.90
2023,03,29,16,58,14.90
2023,03,29,16,59,14.80
2023,03,29,17,00,14.80
2023,03,29,17,01,14.90
2023,03,29,17,02,14.90
2023,03,29,17,03,14.90
2023,03,29,17,04,15.00
2023,03,29,17,05,15.00
2023,03,29,17,06,15.10
2023,03,29,17,07,15.10
2023,03,29,17,08,15.10
2023,03,29,17,09,15.10
2023,03,29,17,10,15.00
2023,03,29,17,11,14.90
2023,03,29,17,12,14.90
2023,03,29,17,13,14.80
2023,03,29,17,14,14.80
2023,03,29,17,15,14.70
2023,03,29,17,16,14.70
2023,03,29,17,17,14.60
2023,03,29,17,18,14.60
2023,03,29,17,19,14.50
2023,03,29,17,20,14.50
2023,03,29,17,21,14.40
2023,03,29,17,22,14.40
2023,03,29,17,23,14.40
2023,03,29,17,24,14.40
2023,03,29,17,25,14.40
2023,03,29,17,26,14.30
2023,03,29,17,27,14.30
2023,03,29,17,28,14.30
2023,03,29,17,29,14.30
2023,03,29,17,30,14.30
2023,03,29,17,31,14.30
2023,03,29,17,32,14.40
2023,03,29,17,33,14.40